Location: Newark
(25.4800°N, 85.7200°E)
Time: 12:21:15
(UTC+00:00)

Transit 2A - Visible Passes

Search period start: 21 August 2019 00:00
Search period end: 31 August 2019 00:00
Orbit: 597 x 962 km, 66.7° (Epoch: 20 August)

Date Brightness Start Highest point End Pass type
(mag) Time Alt. Az. Time Alt. Az. Time Alt. Az.
21 Aug 6.9 14:14:07 10° NW 14:18:13 35° WSW 14:21:26 14° S visible
22 Aug 5.9 13:39:45 10° NNW 13:44:12 64° WSW 13:48:27 10° SSE visible
23 Aug 5.5 13:05:38 10° NNW 13:10:08 72° ENE 13:14:25 10° SSE visible
24 Aug 8.7 14:18:12 10° W 14:18:35 10° WSW 14:18:59 10° WSW visible
25 Aug 8.2 13:41:39 10° WNW 13:44:41 18° WSW 13:47:38 10° SSW visible
26 Aug 7.5 13:06:47 10° NW 13:10:43 31° WSW 13:14:31 10° S visible
